Aérodrome :
LOGIN :

S'inscrire | Disclaimer

   EN    FR    IT 

 










Légende :    VFR   VFR Marginal   IFR   IFR Intensif   IFR Très Intensif
Visi : 
Plafond : 
>= 8 km
>= 3000ft
5 à 8 km
1000 à 3000 ft
1500m à 5 km
500 à 1000 ft
800 à 1500m
200 à 500 ft
< 800m
< 200 ft
Symboles :   Orages  Brouillard  Fortes neiges  Fortes précipitations  Vent > 20 kt
SIGMETs :   Divers  Orages  Givrage  Turbulence  Onde Orograph.  Cendres Volcan.







- Altitude de l'aérodrome : 1989 ft
- Code IATA : KLV


LKKV - Karlovy Vary

DERNIER METAR :
  • 222000Z 33005KT CAVOK 19/12 Q1016

METARs EXPIRÉS :
  • 221900Z 32005KT CAVOK 20/12 Q1016
  • 221830Z 32004KT CAVOK 21/12 Q1015
  • 221800Z 33005KT CAVOK 21/12 Q1015
  • 221730Z 33007KT 300V360 9999 FEW045 22/13 Q1015

TAF TAF LKKV
Valide du 22 à 18h jusqu'au 24 à 00h UTC


221700Z 2218/2400 33007KT CAVOK
BECMG 2222/2300 VRB02KT
TEMPO 2309/2320 8000 SHRA SCT040TCU
PROB30
TEMPO 2310/2317 13018KT 4000 TSRA SCT027CB
Pas de NOTAMs connus pour ce terrain.



MET'MAP, la Météo Aéronautique d'un coup d'oeil ! - Copyright ORBIFLY Décembre 2007 - Disclaimer

ORBIFLY MET'MAP TEAM :

Programmation & Développement : Alexandra Zaïnal
Conception & Développement : Baudouin d'Aumeries
Co-Programmation & Développement : Marc-Olivier Méhu
Soutien technique & logistique : Manuel Goepfert

Contact : metmap@orbifly.com




SOURCES & CREDITS :

   NOAA